Regional Weather Roundup
Issued by NWS

Home | Current Version | Previous Version | Text Only | Print | Product List | Glossary On
Versions: 1 2 3 4 5 6 7 8 9 10 11 12 13 14 15 16 17 18 19 20 21 22 23 24 25 26 27 28 29 30 31 32 33 34 35 36 37 38 39 40 41 42 43 44 45 46 47 48 49 50
000
ASUS42 KFFC 260410
RWRGA
WEATHER ROUNDUP FOR GEORGIA
NATIONAL WEATHER SERVICE PEACHTREE CITY GA
1200 AM EDT SAT MAY 26 2018

NOTE: "FAIR" INDICATES FEW OR NO CLOUDS BELOW 12,000 FEET WITH NO
SIGNIFICANT WEATHER AND/OR OBSTRUCTIONS TO VISIBILITY.

* = USE WITH CAUTION. THE STATIONS MARKED WITH AN ASTERISK MAY NOT
REPORT WEATHER SUCH AS PRECIPITATION, FOG, OR THUNDER AND ARE NOT
QUALITY CONTROLLED BY NWS.

THE REMARK "TC" DENOTES TEMPERATURE READING IN DEGREES CELSIUS.

GAZ001>058-260500-
NORTH GEORGIA

CITY           SKY/WX    TMP DP  RH WIND       PRES   REMARKS
ATLANTA        CLOUDY    72  69  90 SE6       30.00S
ATHENS         LGT RAIN  70  70 100 S5        30.00F FOG
CHAMBLEE       MOCLDY    71  68  90 SE3       30.00F
PEACHTREE CITY MOCLDY    72  71  97 CALM      29.99F
ROME           TSTM      70  70 100 SW7       29.98S
WEST ATLANTA   MOCLDY    73  71  93 S5        29.99F
GAINESVILLE    CLOUDY    70  70 100 S7        30.02F
CARTERSVILLE   LGT RAIN  67  67 100 VRB3      29.98F FOG


CITY           SKY/WX    TMP DP  RH WIND       PRES   REMARKS
DALTON*        MOCLDY    72  70  94 S3        29.98F THUNDER
LAWRENCEVILLE* CLOUDY    70  69  97 SE6         N/A
MARIETTA       MOCLDY    73  68  83 SE6       29.99F
KENNESAW*      CLOUDY    72  69  90 SE5       30.00S
CANTON*        CLOUDY    73  68  83 E5        30.01F
BLAIRSVILLE*   CLOUDY    69  65  88 NE3       30.03F
$$

GAZ059>098-102>109-260500-
CENTRAL GEORGIA

CITY           SKY/WX    TMP DP  RH WIND       PRES   REMARKS
AUGUSTA-BUSH   LGT RAIN  73  72  96 CALM      29.99F
AUGUSTA-DANIEL LGT RAIN  74  73  97 SE3       30.01F
COLUMBUS       MOCLDY    73  71  93 E6        29.98F
MACON          CLOUDY    72  72 100 E5        29.98F
ROBINS AFB     MOCLDY    72  72 100 CALM      29.98F


CITY           SKY/WX    TMP DP  RH WIND       PRES   REMARKS
LAGRANGE*      LGT RAIN  70  69  98 CALM      29.99F
SYLVANIA*      FAIR      74  72  95 CALM      30.01F
MILLEDGEVILLE* RAIN      72  72 100 CALM      29.99F
$$

GAZ099>101-110>166-260500-
SOUTH GEORGIA

CITY           SKY/WX    TMP DP  RH WIND       PRES   REMARKS
SAVANNAH       MOCLDY    74  72  93 S6        30.01F
VALDOSTA       FAIR      72  69  90 S7        29.98F
ALMA           FAIR      74  71  91 SE5       29.99F
ST SIMONS      FAIR      78  73  84 S9        30.00F
FT STEWART     FAIR      73  71  92 SE3       29.99F
ALBANY         LGT RAIN  75  73  93 NW3       29.99S
HUNTER AFB     FAIR      76  72  86 S8        29.98F
MOODY AFB      FAIR      73  70  89 S7        29.97F
BRUNSWICK      FAIR      77  70  78 S6        30.01F


CITY           SKY/WX    TMP DP  RH WIND       PRES   REMARKS
BAINBRIDGE*    FAIR      75  75 100 CALM      29.97F
MOULTRIE*      FAIR      73  70  88 CALM      29.98F
VIDALIA*       FAIR      73  68  83 S5        30.00F
WAYCROSS*      FAIR      75  72  90 S7        29.99F
DOUGLAS*       FAIR      73  72  94 SE3       30.00F
$$




USA.gov is the U.S. government's official web portal to all federal, state and local government web resources and services.